Regional Weather Roundup
Issued by NWS

Home | Current Version | Previous Version | Graphics & Text | Print | Product List | Glossary On
Versions: 1 2 3 4 5 6 7 8 9 10 11 12 13 14 15 16 17 18 19 20 21 22 23 24 25 26 27 28 29 30 31 32 33 34 35 36 37 38 39 40 41 42 43 44 45 46 47 48 49 50
689
ASUS43 KMKX 251221
RWRWI

WISCONSIN REGIONAL WEATHER ROUNDUP
NATIONAL WEATHER SERVICE MILWAUKEE/SULLIVAN WI
700 AM CDT SUN SEP 25 2016

NOTE: "FAIR" INDICATES FEW OR NO CLOUDS BELOW 12,000 FEET WITH NO
SIGNIFICANT WEATHER AND/OR OBSTRUCTIONS TO VISIBILITY.

WIZ001-002-006>008-014>016-023>028-251300-
NORTHWEST WISCONSIN

CITY           SKY/WX    TMP DP  RH WIND       PRES   REMARKS
SUPERIOR ARPT  DRIZZLE   64  63  95 S5        29.87F
6HR MIN TEMP:  59; 6HR MAX TEMP:  64; 6HR PCP:  0.01;

ASHLAND        CLOUDY    63  59  87 VRB5      29.93F
6HR MIN TEMP:  60; 6HR MAX TEMP:  63;

HAYWARD        CLOUDY    62  59  90 SE8       29.93F FOG
6HR MIN TEMP:  61; 6HR MAX TEMP:  63; 6HR PCP: TRACE;

SIREN          LGT RAIN  65  62  91 S9        29.89F
6HR MIN TEMP:  64; 6HR MAX TEMP:  65;

CUMBERLAND     CLOUDY    61  61 100 SE9       29.92F FOG
RICE LAKE      CLOUDY    63  61  92 SE10      29.94F FOG
6HR MIN TEMP:  62; 6HR MAX TEMP:  63;

CHETEK         NOT AVBL
LADYSMITH      CLOUDY    62  60  93 SE8       29.98F
6HR MIN TEMP:  61; 6HR MAX TEMP:  62;

EAU CLAIRE     CLOUDY    65  62  90 SE8       29.93F
6HR MIN TEMP:  63; 6HR MAX TEMP:  65;

MENOMONIE      CLOUDY    66  63  91 SE7       29.92F
6HR MIN TEMP:  64; 6HR MAX TEMP:  66;

NEW RICHMOND   RAIN      65  64  98 SE8       29.90F
6HR MIN TEMP:  65; 6HR MAX TEMP:  65;

OSCEOLA        LGT RAIN  66  66 100 SE9       29.91F
6HR MIN TEMP:  65; 6HR MAX TEMP:  66;

$$

WIZ003>005-009-010-017-018-251300-
NORTH CENTRAL WISCONSIN

CITY           SKY/WX    TMP DP  RH WIND       PRES   REMARKS
MANITOWISH WTR NOT AVBL
ARBOR VITAE    CLOUDY    59  56  88 SE7       30.02F
6HR MIN TEMP:  59; 6HR MAX TEMP:  59;

WOODRUFF       CLOUDY    59  56  88 SE7       30.02F
6HR MIN TEMP:  59; 6HR MAX TEMP:  59;

RHINELANDER    CLOUDY    60  59  96 SE8       30.04F
6HR MIN TEMP:  57; 6HR MAX TEMP:  60; 6HR PCP:  0.01;

EAGLE RIVER    CLOUDY    59  53  81 SE7       30.04F
6HR MIN TEMP:  55; 6HR MAX TEMP:  59;

LAND O LAKES   CLOUDY    58  54  86 SE6       30.06F
6HR MIN TEMP:  55; 6HR MAX TEMP:  58;

PHILLIPS       LGT RAIN  60  58  94 SE10      29.99F
6HR MIN TEMP:  57; 6HR MAX TEMP:  60;

TOMAHAWK       CLOUDY    58  55  90 SE3       30.03F
6HR MIN TEMP:  56; 6HR MAX TEMP:  58;

MEDFORD        CLOUDY   N/A N/A N/A SE9       29.99F
MERRILL        CLOUDY    59  58  96 SE7       30.04F
6HR MIN TEMP:  55; 6HR MAX TEMP:  59;

$$

WIZ029-030-035-036-043>047-251300-
CENTRAL WISCONSIN

CITY           SKY/WX    TMP DP  RH WIND       PRES   REMARKS
WAUSAU         CLOUDY    59  56  89 E7        30.02F
6HR MIN TEMP:  55; 6HR MAX TEMP:  59;

MOSINEE        CLOUDY    57  57 100 E9        30.04F
MARSHFIELD     CLOUDY    61  58  90 SE13      29.99F FOG
6HR MIN TEMP:  58; 6HR MAX TEMP:  61;

STEVENS POINT  CLOUDY    57  57 100 SE5       30.03F
6HR MIN TEMP:  55; 6HR MAX TEMP:  57;

WAUPACA        PTCLDY    59  58  98 CALM      30.04F
6HR MIN TEMP:  57; 6HR MAX TEMP:  59;

WAUTOMA        PTCLDY    58  57  97 E3        30.04F
6HR MIN TEMP:  56; 6HR MAX TEMP:  58;

WISC RAPIDS    CLOUDY    61  60  97 SE6       30.02F
6HR MIN TEMP:  58; 6HR MAX TEMP:  61;

CAMP DOUGLAS   CLOUDY    60  60  99 SE8       29.99F
6HR MIN TEMP:  59; 6HR MAX TEMP:  63;

$$

WIZ011>013-019>022-031-037>040-048>050-251300-
NORTHEAST WISCONSIN

CITY           SKY/WX    TMP DP  RH WIND       PRES   REMARKS
ANTIGO         CLOUDY    57  56  98 SE10      30.06F
6HR MIN TEMP:  54; 6HR MAX TEMP:  57;

SHAWANO        PTCLDY    60  57  91 E7        30.06F
6HR MIN TEMP:  58; 6HR MAX TEMP:  62;

OCONTO         NOT AVBL
STURGEON BAY   CLOUDY    63  57  82 SE12      30.10F
6HR MIN TEMP:  56; 6HR MAX TEMP:  62;

GREEN BAY      CLOUDY    62  61  96 SE9       30.07F
6HR MIN TEMP:  57; 6HR MAX TEMP:  62;

MANITOWOC      CLOUDY    64  60  87 SE10      30.09F
6HR MIN TEMP:  62; 6HR MAX TEMP:  64;

APPLETON       MOCLDY    63  61  94 SE10      30.05F
CLINTONVILLE   NOT AVBL
OSHKOSH        PTCLDY    64  61  90 SE8       30.04F
6HR MIN TEMP:  59; 6HR MAX TEMP:  64;

$$

WIZ032>034-041-042-053>061-251300-
SOUTHWEST WISCONSIN

CITY           SKY/WX    TMP DP  RH WIND       PRES   REMARKS
LA CROSSE      CLOUDY    69  65  86 S10       29.94F
6HR MIN TEMP:  66; 6HR MAX TEMP:  69; 6HR PCP: TRACE;

SPARTA         PTCLDY    65  63  91 S7        29.97F
6HR MIN TEMP:  61; 6HR MAX TEMP:  65;

VIROQUA        CLOUDY    63  63 100 SE7       29.98F
6HR MIN TEMP:  62; 6HR MAX TEMP:  63;

BOSCOBEL       MOCLDY    64  62  93 N6        29.99F FOG
6HR MIN TEMP:  63; 6HR MAX TEMP:  65;

PRAIRIE DU CHI CLOUDY    65  62  93 CALM      29.97F FOG
6HR MIN TEMP:  64; 6HR MAX TEMP:  66; 6HR PCP:  0.03;

PLATTEVILLE    CLOUDY    65  65 100 SE5       30.01S
6HR MIN TEMP:  63; 6HR MAX TEMP:  65;

$$

WIZ056-057-062-063-064-067-068-251300-
SOUTH CENTRAL WISCONSIN

CITY           SKY/WX    TMP DP  RH WIND       PRES   REMARKS
REEDSBURG      NOT AVBL
BARABOO/DELLS  PTCLDY    64  62  93 S6        30.02S FOG
6HR MIN TEMP:  60; 6HR MAX TEMP:  64;

LONE ROCK      PTCLDY    64  63  96 E6        30.01F FOG
6HR MIN TEMP:  63; 6HR MAX TEMP:  65;

MINERAL POINT  PTCLDY    64  64 100 SE9       30.02S
MADISON        CLOUDY    64  62  93 S8        30.03F
6HR MIN TEMP:  61; 6HR MAX TEMP:  65;

MIDDLETON      CLOUDY    64  64 100 E3        30.04S
6HR MIN TEMP:  63; 6HR MAX TEMP:  64;

WATERTOWN      MOCLDY    63  63 100 SE7       30.05S
6HR MIN TEMP:  58; 6HR MAX TEMP:  63;

MONROE         PTCLDY    64  63  94 S10       30.04S FOG
JANESVILLE     CLOUDY    66  64  94 SE9       30.04F
$$

WIZ051-052-058>065-066-070>072-251300-
SOUTHEAST WISCONSIN

CITY           SKY/WX    TMP DP  RH WIND       PRES   REMARKS
MILWAUKEE      MOCLDY    67  62  84 SE9       30.08F
6HR MIN TEMP:  65; 6HR MAX TEMP:  68;

WAUKESHA       CLEAR     63  61  94 SE7       30.09F
MILWAUKEE/TIMM CLOUDY    64  59  82 SE6       30.08F
RACINE         CLOUDY    66  61  84 SE14      30.10F
6HR MIN TEMP:  66; 6HR MAX TEMP:  68;

BURLINGTON     CLOUDY    61  60  97 SE3       30.08S
6HR MIN TEMP:  55; 6HR MAX TEMP:  61;

KENOSHA        MOCLDY    65  61  87 SE12      30.09F
6HR MIN TEMP:  65; 6HR MAX TEMP:  67;

FOND DU LAC    MOCLDY    65  62  90 SE14      30.05F
6HR MIN TEMP:  59; 6HR MAX TEMP:  65;

SHEBOYGAN      CLOUDY    66  62  87 S8        30.08F
6HR MIN TEMP:  63; 6HR MAX TEMP:  65;

WEST BEND      PTCLDY    63  61  94 SE7       30.08F
JUNEAU         PTCLDY    63  61  95 E8        30.06F
6HR MIN TEMP:  59; 6HR MAX TEMP:  63;

$$

LSZ147-162-251300-
LAKE SUPERIOR

STATION/POSITION TIME  TEMP    WIND        PRES    WAVE
                       AIR SEA DIR/SP/G            HT/PER
                 (UTC) (F)     (DEG/KT/KT) (MB)    (FT/S)
W MID LAKE BUOY  1150   62 61  160/ 10/ 14 1014.1F   3/ 4
DEVILS ISLAND    1200   62     130/  7/  9 1013.6F
SAXON HARBOR     1140   63     170/  2/  6 1013.9F
$$

LMZ867-665-643>646-251300-
LAKE MICHIGAN

STATION/POSITION TIME  TEMP    WIND        PRES    WAVE
                       AIR SEA DIR/SP/G            HT/PER
                 (UTC) (F)     (DEG/KT/KT) (MB)    (FT/S)
CHAMBERS ISLAND  1100   62     120/  7/ 12 1019.3F
S GREEN BAY BUOY 1200   64 66  160/ 12/ 14 1018.3F
N MID LAKE BUOY  1150   62 67  170/ 16/ 19 1019.7F   3/ 5
NORTHPORT PIER   1100   63     150/ 10/ 17 1020.0F
SISTER BAY       1138   63     150/ 1C1F1C2F2C3F3C4F4C5F5C6F6C7F7C8M1C9M2Ca!



USA.gov is the U.S. government's official web portal to all federal, state and local government web resources and services.